カタログに戻る

GSTAR 3

運用中通信GEO
NORAD 19483·PAYLOAD·🇺🇸 United States

打ち上げ Sep 8, 1988 から Guiana Space Centre

Loading…

TLE

最新Source: Space-Track

元期: Sep 14, 2026, 05:34 UTC

1 19483U 88081A   26257.23239100 -.00000111  00000-0  00000-0 0  9996
2 19483  10.9428 317.6633 0007080 221.4276 152.4606  1.00272243135496

AllMySatでGSTAR 3をリアルタイム追跡

Download on the App Store